Burnet, TX

1:00 PM CST on December 13, 2017 (GMT -0600)
Burnet Municipal-Craddock

Weather History for KBMQ - May, 2012

Change the Weather History Date:

Thursday, May 17, 2012

  Actual Average Record
Temperature  
Mean Temperature 74 °F -  
Max Temperature 87 °F 82 °F 93 °F (2013)
Min Temperature 60 °F 62 °F 53 °F (2006)
Cooling Degree Days 8    
Growing Degree Days 24 (Base 50)    
Moisture  
Dew Point 54 °F    
Average Humidity 53    
Maximum Humidity 86    
Minimum Humidity 23    
Precipitation  
Precipitation 0.00 in - - ()
Sea Level Pressure  
Sea Level Pressure 29.98 in    
Wind  
Wind Speed 2 mph (SSE)    
Max Wind Speed 9 mph    
Max Gust Speed -    
Visibility 10 miles    
Events      
Averages and records for this station are not official NWS values.
T = Trace of Precipitation, MM = Missing Value Source: NWS Daily Summary

Daily Weather History Graph

Daily Weather History Graph

Search for Another Location

Airport or City:

Trip Planner

Search our weather history database for the weather conditions in past years. The results will help you decide how hot, cold, wet, or windy it might be!

Date:

Astronomy

May. 17, 2012 Rise Set
Actual Time 6:36 AM CDT 8:22 PM CDT
Civil Twilight 6:10 AM CDT 8:49 PM CDT
Nautical Twilight 5:38 AM CDT 9:21 PM CDT
Astronomical Twilight 5:04 AM CDT 9:55 PM CDT
Moon 4:25 AM CDT (5/17) 5:44 PM CDT (5/17)
Length of Visible Light 14h 39m
Length of Day
13h 45m
Waning Crescent, 9% of the Moon is Illuminated
May 17
Waning Crescent
May 20
New
May 28
First Quarter
Jun 4
Full
Jun 11
Last Quarter

Hourly Weather History & Observations

Time (CDT) Temp. Heat Index Dew Point Humidity Pressure Visibility Wind Dir Wind Speed Gust Speed Precip Events Conditions
12:53 AM 68.0 °F - 57.9 °F 70% 30.03 in 10.0 mi Calm Calm - N/A   Clear
1:53 AM 64.9 °F - 57.9 °F 78% 30.02 in 10.0 mi Calm Calm - N/A   Clear
2:53 AM 64.9 °F - 57.0 °F 75% 30.01 in 10.0 mi Calm Calm - N/A   Clear
3:53 AM 61.0 °F - 55.9 °F 83% 30.01 in 9.0 mi Calm Calm - N/A   Clear
4:53 AM 61.0 °F - 55.9 °F 83% 30.01 in 9.0 mi Calm Calm - N/A   Clear
5:53 AM 60.1 °F - 55.0 °F 83% 30.02 in 8.0 mi Calm Calm - N/A   Clear
6:53 AM 60.1 °F - 55.9 °F 86% 30.03 in 7.0 mi Calm Calm - N/A   Clear
7:53 AM 64.9 °F - 57.9 °F 78% 30.04 in 8.0 mi Calm Calm - N/A   Clear
8:53 AM 71.1 °F - 59.0 °F 66% 30.04 in 10.0 mi Calm Calm - N/A   Clear
9:53 AM 75.9 °F - 57.9 °F 54% 30.04 in 10.0 mi SSW 4.6 mph - N/A   Clear
10:53 AM 79.0 °F - 53.1 °F 40% 30.03 in 10.0 mi South 6.9 mph - N/A   Clear
11:53 AM 81.0 °F - 50.0 °F 34% 30.02 in 10.0 mi South 4.6 mph - N/A   Clear
12:53 PM 82.9 °F - 50.0 °F 32% 30.00 in 10.0 mi East 4.6 mph - N/A   Clear
1:53 PM 84.9 °F - 50.0 °F 30% 29.99 in 10.0 mi South 4.6 mph - N/A   Clear
2:53 PM 87.1 °F - 48.9 °F 27% 29.96 in 10.0 mi Variable 3.5 mph - N/A   Clear
3:53 PM 86.0 °F - 44.1 °F 23% 29.94 in 10.0 mi Calm Calm - N/A   Clear
4:53 PM 86.0 °F - 46.9 °F 26% 29.92 in 10.0 mi Variable 3.5 mph - N/A   Clear
5:53 PM 86.0 °F - 51.1 °F 30% 29.91 in 10.0 mi SE 5.8 mph - N/A   Clear
6:53 PM 84.9 °F - 50.0 °F 30% 29.90 in 10.0 mi SE 9.2 mph - N/A   Clear
7:53 PM 82.0 °F 81.4 °F 55.0 °F 39% 29.90 in 10.0 mi SE 9.2 mph - N/A   Clear
8:53 PM 78.1 °F - 55.9 °F 46% 29.91 in 10.0 mi Variable 5.8 mph - N/A   Clear
9:53 PM 75.0 °F - 55.9 °F 51% 29.91 in 10.0 mi SSE 4.6 mph - N/A   Clear
10:53 PM 73.0 °F - 57.0 °F 57% 29.93 in 10.0 mi South 3.5 mph - N/A   Clear
11:53 PM 72.0 °F - 57.0 °F 59% 29.93 in 10.0 mi SSE 4.6 mph - N/A   Clear